Total_Precipitation_Accumulation
0.47 0.49 0.59 0.46 0.40 0.44 0.50 0.59 0.66 0.61 0.59 0.58 0.51 0.45 0.43 0.42 0.37 0.35 0.39 0.43 0.49 0.56 0.62 0.72 0.82 0.89 0.94 0.87 0.80 0.74 0.76 0.80 0.94 0.96 0.95 0.96 1.06 1.27 1.44 1.44 1.45 0.93 0.81
0.25 0.30 0.44 0.37 0.34 0.40 0.48 0.59 0.64 0.60 0.55 0.53 0.50 0.46 0.43 0.42 0.40 0.40 0.43 0.49 0.52 0.55 0.61 0.69 0.74 0.73 0.71 0.69 0.65 0.62 0.70 0.88 1.12 1.22 1.26 1.16 1.26 1.44 1.48 1.41 1.50 0.86 0.80
0.15 0.17 0.23 0.27 0.25 0.28 0.34 0.42 0.48 0.45 0.41 0.41 0.42 0.41 0.43 0.46 0.45 0.44 0.47 0.51 0.53 0.57 0.55 0.56 0.58 0.57 0.57 0.61 0.62 0.67 0.76 1.06 1.42 1.66 1.82 1.43 1.00 1.38 1.45 1.32 1.14 0.75 0.82
0.10 0.11 0.13 0.20 0.21 0.22 0.25 0.32 0.40 0.39 0.37 0.37 0.38 0.38 0.39 0.45 0.52 0.52 0.55 0.58 0.58 0.59 0.53 0.51 0.48 0.46 0.49 0.55 0.61 0.74 0.88 1.10 1.43 1.91 2.10 1.29 0.71 0.91 1.05 0.96 0.90 0.78 0.77
0.07 0.09 0.16 0.19 0.17 0.17 0.20 0.28 0.37 0.35 0.32 0.32 0.33 0.38 0.41 0.46 0.52 0.57 0.60 0.59 0.55 0.54 0.50 0.45 0.39 0.38 0.42 0.48 0.60 0.73 0.88 1.12 1.43 1.66 1.40 1.28 1.08 0.93 0.83 0.77 0.79 0.74 0.64
0.07 0.10 0.14 0.18 0.17 0.15 0.17 0.23 0.32 0.33 0.30 0.32 0.35 0.40 0.42 0.44 0.49 0.51 0.50 0.50 0.51 0.50 0.48 0.43 0.34 0.38 0.46 0.52 0.64 0.74 0.86 1.12 1.32 1.02 0.87 1.05 0.90 0.92 0.88 0.90 0.91 0.81 0.66
0.09 0.09 0.12 0.17 0.17 0.17 0.18 0.23 0.27 0.32 0.31 0.31 0.34 0.35 0.39 0.43 0.48 0.47 0.42 0.43 0.48 0.48 0.43 0.38 0.35 0.42 0.48 0.54 0.61 0.71 0.95 1.16 1.11 0.79 0.81 1.02 0.77 0.70 0.88 1.05 1.15 0.98 0.79
0.14 0.09 0.13 0.20 0.22 0.23 0.22 0.26 0.29 0.29 0.31 0.35 0.33 0.30 0.33 0.37 0.39 0.43 0.43 0.43 0.46 0.48 0.42 0.36 0.42 0.46 0.50 0.54 0.57 0.65 0.87 1.00 0.83 0.71 0.72 0.75 0.52 0.62 0.87 1.09 1.24 1.15 0.99
0.25 0.22 0.20 0.23 0.27 0.31 0.33 0.32 0.36 0.34 0.33 0.37 0.36 0.35 0.35 0.35 0.35 0.38 0.48 0.49 0.45 0.45 0.44 0.37 0.38 0.41 0.42 0.45 0.53 0.65 0.86 1.01 0.87 0.77 0.61 0.56 0.48 0.65 0.93 1.08 1.17 1.20 1.12
0.60 0.45 0.30 0.29 0.34 0.33 0.31 0.39 0.45 0.40 0.39 0.38 0.37 0.37 0.39 0.40 0.40 0.44 0.49 0.55 0.57 0.54 0.50 0.43 0.38 0.40 0.45 0.51 0.61 0.79 0.95 0.91 0.83 0.86 0.83 0.61 0.59 0.75 0.94 1.05 1.23 1.29 1.20
1.14 0.93 0.58 0.45 0.45 0.48 0.41 0.42 0.54 0.53 0.47 0.47 0.50 0.51 0.66 0.80 0.72 0.82 0.75 0.81 0.81 0.75 0.70 0.65 0.62 0.59 0.56 0.53 0.69 0.94 0.92 0.86 1.11 1.15 0.82 0.64 0.74 0.98 1.14 1.23 1.31 1.30 1.28
1.32 1.20 0.89 0.76 0.59 0.53 0.48 0.60 0.82 0.78 0.80 0.84 0.92 0.89 1.15 1.35 1.24 0.98 1.08 1.30 1.29 1.25 1.13 1.12 1.12 0.93 0.75 0.73 1.22 1.57 1.20 1.24 1.30 0.99 0.80 0.87 1.13 1.42 1.65 1.55 1.40 1.27 1.19
1.46 1.31 1.08 1.00 0.89 0.73 0.85 0.80 0.94 1.15 1.29 1.15 1.06 1.13 1.45 1.38 1.14 1.14 1.24 1.43 1.63 1.56 1.46 1.62 1.72 1.43 1.36 1.61 1.95 1.87 1.45 1.47 1.42 1.25 1.01 1.15 1.50 1.91 2.14 2.00 1.71 1.44 1.25
1.77 1.60 1.41 1.21 1.08 1.05 1.05 1.00 1.05 1.12 1.28 1.28 1.34 1.33 1.53 1.73 1.65 1.66 1.75 1.74 1.84 1.98 2.25 2.17 2.23 2.05 1.94 1.87 2.01 1.83 1.65 1.68 1.60 1.79 1.81 1.72 1.78 2.05 2.47 2.39 2.03 1.72 1.53
2.26 2.14 1.93 1.58 1.54 1.48 1.52 1.54 1.31 1.31 1.40 1.62 1.76 1.72 1.70 1.87 1.90 1.97 1.99 2.02 1.89 1.99 2.18 2.43 2.34 2.43 2.47 2.26 1.98 1.85 1.94 1.94 2.03 1.99 1.94 2.12 2.04 2.02 2.46 2.57 2.29 2.00 1.85
2.92 2.94 2.73 2.38 2.31 2.19 1.98 1.89 1.81 1.67 1.79 1.86 1.95 1.95 1.95 2.16 2.31 2.25 2.08 2.09 1.99 2.01 2.11 2.31 2.41 2.73 2.68 2.60 2.18 1.99 2.03 2.10 2.10 2.19 2.12 2.39 2.25 1.97 2.19 2.44 2.54 2.39 2.15
3.21 3.38 3.39 3.23 3.19 3.03 2.72 2.40 2.19 2.14 2.06 2.22 2.31 2.25 2.30 2.34 2.49 2.42 2.29 2.11 2.11 2.14 2.28 2.34 2.45 2.75 2.74 2.64 2.44 2.26 2.17 1.96 1.83 1.90 1.96 2.14 2.07 1.92 1.98 2.18 2.45 2.53 2.41
3.50 3.69 3.91 3.86 3.86 3.62 3.32 2.99 2.74 2.54 2.46 2.45 2.43 2.44 2.37 2.49 2.54 2.56 2.34 2.09 2.21 2.18 2.30 2.57 2.67 2.82 2.97 2.97 2.71 2.44 2.27 2.08 1.86 1.81 1.73 1.73 1.90 1.58 1.78 2.02 2.22 2.34 2.60
3.86 4.23 4.58 4.65 4.56 4.19 3.76 3.49 3.37 3.13 2.89 2.71 2.68 2.58 2.50 2.51 2.43 2.53 2.33 2.22 2.30 2.46 2.50 2.33 2.81 3.06 3.10 3.08 2.59 2.46 2.09 1.94 1.77 1.61 1.61 1.48 1.56 1.56 1.63 1.72 1.86 1.97 2.44
4.37 4.95 4.98 4.91 5.16 4.91 4.53 4.26 4.00 3.59 3.24 2.96 2.81 2.68 2.48 2.38 2.31 2.55 2.25 2.22 2.39 2.60 2.62 2.67 3.03 3.13 2.99 3.11 2.65 2.29 1.89 1.56 1.48 1.45 1.34 1.28 1.25 1.21 1.29 1.62 1.92 1.73 2.11
4.20 4.75 5.27 5.33 5.21 4.98 4.63 4.16 3.80 3.41 3.19 2.95 2.71 2.51 2.44 2.40 2.46 2.79 2.47 2.61 2.52 2.52 2.55 2.71 2.93 2.88 2.73 3.08 3.12 2.41 1.66 1.27 1.22 1.08 1.06 1.08 1.02 1.05 1.28 1.69 1.96 1.98 1.74
3.61 4.06 4.45 4.69 4.37 3.94 3.73 3.66 3.51 3.47 3.08 2.93 2.89 2.88 2.63 2.63 2.59 2.56 2.66 2.56 2.58 2.60 2.42 2.49 2.78 2.64 2.30 2.67 2.96 2.93 2.17 1.66 1.23 0.81 0.90 0.93 0.98 1.15 1.22 1.30 1.64 1.97 1.89
3.06 3.23 3.37 3.51 3.54 3.51 3.58 3.68 3.71 3.80 3.47 3.34 3.26 3.15 2.79 2.69 2.61 2.61 2.49 2.39 2.45 2.37 2.27 2.25 2.43 2.53 2.34 2.32 2.66 3.04 2.48 1.87 1.44 0.98 0.91 0.90 1.11 1.41 1.42 1.43 1.54 1.78 1.91
2.42 2.68 3.09 3.23 3.35 3.53 3.76 3.76 3.73 3.61 3.48 3.48 3.56 3.55 3.42 3.15 2.86 2.63 2.43 2.29 2.19 2.09 2.14 1.90 2.14 2.31 2.38 2.07 2.20 2.32 2.20 2.14 2.05 1.48 1.10 1.01 1.26 1.43 1.47 1.48 1.52 1.69 1.83
2.05 2.33 2.80 3.29 3.52 3.69 3.89 3.96 4.14 3.96 3.77 3.64 3.67 3.71 3.50 3.27 2.96 2.64 2.52 2.39 2.24 2.08 1.99 1.92 2.09 2.02 2.04 1.97 2.04 2.06 2.07 2.07 1.98 1.86 1.52 1.37 1.30 1.09 1.12 1.24 1.45 1.73 1.83
2.20 2.42 2.75 3.17 3.49 3.68 3.80 3.84 3.85 3.79 3.73 3.51 3.39 3.14 2.82 2.70 2.57 2.38 2.30 2.21 2.07 2.04 2.03 1.98 1.95 1.92 1.96 2.03 2.00 1.95 2.01 2.02 2.01 2.10 1.82 1.60 1.44 1.21 1.16 1.21 1.36 1.53 1.63